Location: Saratoga Springs
(43.0831°N, 73.7850°W)
Time: 04:49:36
(UTC-04:00)

Vanguard 2 - All Passes

Search period start: 17 April 2024 00:00
Search period end: 27 April 2024 00:00
Orbit: 552 x 2917 km, 32.9° (Epoch: 16 April)

Date Brightness Start Highest point End Pass type
(mag) Time Alt. Az. Time Alt. Az. Time Alt. Az.
17 Apr - 00:24:47 10° SSE 00:32:13 15° SE 00:40:19 10° ESE visible
17 Apr - 02:27:06 10° SSW 02:41:18 38° SSE 02:56:24 10° E visible
17 Apr - 04:35:30 10° WSW 04:52:20 56° S 05:07:26 10° E visible
17 Apr - 06:46:46 10° W 07:03:41 55° SSW 07:16:25 10° ESE daylight
17 Apr - 08:59:55 10° W 09:13:22 34° SSW 09:22:57 10° SSE daylight
18 Apr - 00:36:36 10° S 00:46:15 20° SE 00:57:11 10° E visible
18 Apr - 02:41:00 10° SW 02:55:42 44° SSE 03:11:26 10° E visible
18 Apr - 04:50:02 10° WSW 05:06:59 58° S 05:22:10 10° ESE visible
18 Apr - 07:01:35 10° W 07:18:16 52° SSW 07:30:52 10° SE daylight
18 Apr - 09:15:10 10° W 09:27:33 29° SW 09:36:42 10° SSE daylight
19 Apr - 00:49:22 10° S 01:00:20 26° SE 01:13:08 10° E visible
19 Apr - 02:55:06 10° SW 03:10:11 49° SSE 03:26:20 10° E visible
19 Apr - 05:04:39 10° WSW 05:21:40 59° S 05:36:49 10° ESE visible
19 Apr - 07:16:26 10° W 07:32:46 48° SSW 07:45:11 10° SE daylight
19 Apr - 09:30:41 10° W 09:41:38 23° SW 09:50:04 10° S daylight
20 Apr - 01:02:40 10° SSW 01:14:27 32° SE 01:28:36 10° E visible
20 Apr - 03:09:22 10° SW 03:24:42 53° SSE 03:41:10 10° E visible
20 Apr - 05:19:19 10° WSW 05:36:20 59° S 05:51:25 10° ESE visible
20 Apr - 07:31:21 10° W 07:47:10 43° SSW 07:59:21 10° SE daylight
20 Apr - 09:46:41 10° W 09:55:36 18° SW 10:02:53 10° S daylight
20 Apr - 23:15:20 10° SSE 23:20:25 13° SE 23:26:06 10° ESE visible
21 Apr - 01:16:18 10° SSW 01:28:39 37° SSE 01:43:47 10° E visible
21 Apr - 03:23:46 10° WSW 03:39:16 57° SSE 03:55:55 10° E visible
21 Apr - 05:34:01 10° W 05:50:57 57° S 06:05:56 10° ESE visible
21 Apr - 07:46:21 10° W 08:01:27 38° SSW 08:13:18 10° SSE daylight
21 Apr - 10:03:48 10° WSW 10:09:30 13° SW 10:14:33 10° SSW daylight
21 Apr - 23:26:44 10° S 23:34:19 18° SE 23:43:25 10° E visible
22 Apr - 01:30:11 10° SW 01:42:56 43° SSE 01:58:48 10° E visible
22 Apr - 03:38:14 10° WSW 03:53:52 59° S 04:10:37 10° ESE visible
22 Apr - 05:48:45 10° W 06:05:30 54° SSW 06:20:19 10° SE daylight
22 Apr - 08:01:29 10° W 08:15:38 32° SW 08:26:59 10° SSE daylight
22 Apr - 23:39:23 10° S 23:48:16 23° SE 23:59:29 10° E visible
23 Apr - 01:44:15 10° SW 01:57:17 48° SSE 02:13:41 10° E visible
23 Apr - 03:52:47 10° WSW 04:08:29 60° S 04:25:15 10° ESE visible
23 Apr - 06:03:32 10° W 06:19:59 50° SSW 06:34:35 10° SE daylight
23 Apr - 08:16:52 10° W 08:29:43 27° SW 08:40:20 10° S daylight
23 Apr - 23:52:37 10° SSW 00:02:16 29° SE 00:15:00 10° E visible
24 Apr - 01:58:28 10° SW 02:11:42 52° SSE 02:28:29 10° E visible
24 Apr - 04:07:23 10° WSW 04:23:06 59° S 04:39:48 10° ESE visible
24 Apr - 06:18:21 10° W 06:34:23 45° SSW 06:48:40 10° SE daylight
24 Apr - 08:32:38 10° W 08:43:42 21° SW 08:53:10 10° S daylight
25 Apr - 00:06:12 10° SSW 00:16:21 34° SE 00:30:11 10° E visible
25 Apr - 02:12:49 10° WSW 02:26:11 55° SSE 02:43:13 10° E visible
25 Apr - 04:22:00 10° W 04:37:40 57° S 04:54:16 10° ESE visible
25 Apr - 06:33:16 10° W 06:48:41 40° SSW 07:02:33 10° SSE daylight
25 Apr - 08:49:11 10° WSW 08:57:37 16° SW 09:05:11 10° SSW daylight
25 Apr - 22:17:50 10° SSE 22:22:49 14° SE 22:28:44 10° ESE visible
26 Apr - 00:20:04 10° SW 00:30:32 40° SSE 00:45:10 10° E visible
26 Apr - 02:27:14 10° WSW 02:40:43 57° S 02:57:53 10° E visible
26 Apr - 04:36:40 10° W 04:52:12 54° SSW 05:08:37 10° ESE visible
26 Apr - 06:48:19 10° W 07:02:54 34° SW 07:16:09 10° SSE daylight
26 Apr - 09:08:10 10° WSW 09:11:30 11° SW 09:14:41 10° SW daylight
26 Apr - 22:30:07 10° S 22:36:41 19° SE 22:45:09 10° E visible
